Meteor 2-5 Rocket - Orbit

View from above orbital plane
View from above orbital plane
View from above satellite
View from above satellite

Ground track
Ground track

The orbit data is extracted from the following two-line orbital elements,

1 11608U 79095B   13144.19687625 -.00000033  00000-0 -27251-4 0  2894
2 11608 081.2140 211.8506 0054599 015.2671 042.9820 14.05944744721402
Epoch (UTC): 24 May 2013 04:43:30
Eccentricity: 0.0054599
inclination: 81.2140°
perigee height: 833 km
apogee height: 913 km
right ascension of ascending node: 211.8506°
argument of perigee: 15.2671°
revolutions per day: 14.05944744
mean anomaly at epoch: 42.9820°
orbit number at epoch: 72140

The dashed part of the orbit path shows where the satellite is in the earth's shadow,  

Developed and maintained by Chris Peat, Heavens-Above GmbH. Please read the updated FAQ before sending e-mail. Imprint. DLR